Theta_e
322 322 323 323 323 323 323 324 324 323 323 324 325 325 325 325 325 325 325 324 324 324 325 324 324 324 324 325 326 325 326 326 326 327 327 328 328 328 327 327 326 325 325 325 324 323 323 323 323 323 322 321 321 319 319 319 318 316 314 314 315 316 315
322 322 322 319 317 317 318 319 319 319 318 320 322 325 326 325 325 325 324 325 324 324 325 324 324 325 324 325 325 325 325 325 326 326 327 327 327 327 327 327 326 324 325 325 323 322 322 322 323 322 322 321 321 320 319 319 317 314 310 310 312 314 315
321 322 321 318 316 315 316 315 315 316 315 316 317 319 323 324 325 324 323 323 323 323 324 324 323 324 324 325 325 325 325 325 326 326 327 328 328 327 327 327 326 324 324 324 323 322 322 321 322 322 321 321 320 319 319 318 316 312 310 308 309 312 315
319 320 319 318 315 315 316 317 318 317 316 316 316 316 317 320 321 322 322 321 321 323 324 324 324 323 323 324 324 325 325 324 325 326 327 328 327 327 327 327 326 324 323 323 323 323 322 321 321 321 320 320 319 316 317 318 316 312 310 309 308 308 310
316 317 316 315 313 314 316 318 320 320 319 318 318 317 317 316 316 318 320 320 320 321 322 322 322 323 323 324 324 326 326 325 325 326 326 326 326 326 326 326 325 324 323 323 322 323 323 322 321 320 319 319 318 315 316 317 315 312 311 309 308 307 306
315 315 314 312 311 313 316 318 320 320 319 320 321 321 320 318 315 314 316 319 319 320 321 320 320 320 322 324 325 325 326 325 325 325 325 325 325 325 325 325 325 324 323 323 323 323 322 321 321 320 318 317 315 314 317 317 313 311 311 309 308 307 306
315 313 312 311 311 313 317 320 321 318 318 320 322 323 322 321 317 315 315 317 319 319 319 319 319 318 319 322 323 324 324 325 324 322 323 324 324 325 325 324 325 324 323 324 323 322 321 321 321 320 317 316 315 314 316 317 314 311 310 309 308 308 307
313 311 309 310 311 313 317 319 320 319 319 320 320 320 321 321 318 316 317 319 320 321 320 319 319 317 318 321 322 322 323 323 321 320 321 323 323 324 324 324 324 324 323 324 323 322 321 320 319 318 315 313 315 316 316 316 314 311 309 308 308 308 307
311 309 310 312 312 313 315 317 319 320 320 321 320 318 319 321 320 317 317 317 317 319 320 320 318 317 319 321 321 321 320 319 318 318 320 322 323 324 324 323 323 323 324 325 324 322 321 317 315 314 312 310 312 314 315 316 314 312 309 308 308 308 307
310 311 314 314 314 314 316 318 320 321 320 321 321 319 319 321 321 318 316 315 316 318 319 319 319 319 320 320 320 319 318 317 318 320 322 323 323 324 323 322 322 323 324 324 323 322 320 315 311 311 312 311 310 309 312 314 313 311 309 308 308 308 308
312 314 316 315 315 315 316 318 320 321 321 321 320 319 318 319 319 317 315 317 319 320 320 321 321 321 320 319 319 318 317 318 320 322 323 322 323 322 320 319 318 319 321 322 322 322 321 316 311 310 312 312 311 309 310 311 310 309 308 308 309 309 308
314 316 316 315 315 315 316 318 320 321 321 321 320 319 318 318 317 314 315 318 319 319 321 321 321 321 320 320 319 319 319 320 322 322 321 320 321 319 317 316 315 316 318 320 320 321 322 319 313 311 312 311 311 311 310 310 310 309 309 308 309 309 309
315 317 316 315 315 315 316 318 319 320 321 320 319 316 313 315 314 313 317 320 319 318 319 319 320 320 320 321 321 320 321 322 321 320 317 316 317 317 316 316 315 315 316 318 319 320 321 320 315 312 312 311 311 311 311 310 310 310 310 309 308 310 309
317 319 317 315 315 314 315 316 318 319 319 317 314 310 309 311 311 314 319 320 319 319 319 319 319 319 319 321 322 322 322 321 320 318 314 313 313 314 314 315 315 315 316 317 318 319 321 320 316 313 313 312 312 311 311 310 309 310 310 309 310 311 309
318 320 318 316 315 313 313 315 316 316 314 311 308 306 307 308 309 314 319 319 320 320 320 320 320 318 318 319 322 323 322 321 320 318 315 314 313 313 313 314 315 314 315 315 316 317 319 319 316 315 314 313 313 312 311 310 309 310 311 311 312 311 309
320 321 319 318 315 313 312 314 314 312 309 307 306 306 306 306 307 313 318 318 318 319 319 319 319 318 316 315 317 320 322 322 321 319 318 316 314 313 313 314 314 314 314 315 315 315 316 316 315 315 314 314 313 312 311 310 309 311 313 313 313 311 309
321 321 321 319 315 312 311 313 312 309 306 306 307 307 306 306 306 310 315 316 315 315 316 316 316 316 315 312 310 312 316 318 318 317 315 313 311 311 311 313 314 314 314 314 314 314 314 314 314 314 314 314 314 314 313 311 310 313 314 314 313 312 310
322 322 321 321 316 311 312 314 311 307 306 307 308 308 308 308 307 308 311 312 312 312 311 311 311 312 311 309 306 306 309 310 311 311 310 309 309 308 308 311 313 314 314 314 314 314 314 313 313 313 314 314 314 314 312 311 312 315 314 314 313 312 310
323 322 322 321 314 310 313 314 309 306 307 308 309 310 310 311 311 310 309 308 308 309 308 308 307 307 307 305 304 305 305 306 308 310 310 310 310 308 308 309 310 311 312 313 313 312 312 312 312 313 313 314 314 314 312 312 314 315 314 313 313 312 311
322 322 323 319 310 308 314 313 307 306 307 309 311 311 311 312 313 313 311 309 307 307 307 307 306 306 305 305 305 306 307 308 309 310 310 311 311 310 310 309 309 309 309 310 310 310 310 311 312 313 313 314 314 314 314 314 314 314 314 314 313 313 312
322 322 320 314 308 311 316 311 305 305 308 311 313 313 312 313 313 313 313 312 311 310 308 307 307 307 307 308 308 309 309 310 310 310 311 310 311 311 310 310 310 310 310 310 310 311 311 312 313 313 314 314 314 315 315 314 314 314 314 314 313 313 313
321 320 316 313 315 318 318 310 305 306 309 312 315 314 313 313 314 314 314 314 314 313 312 310 308 308 309 310 311 311 311 311 310 310 310 310 310 310 310 310 310 310 310 310 310 311 311 312 313 314 314 314 314 314 315 314 314 314 314 314 314 314 314
321 318 317 319 321 321 317 309 306 309 312 314 315 315 315 314 314 314 313 314 314 314 314 313 312 310 309 310 311 312 312 312 312 311 311 310 310 310 310 310 310 310 310 310 310 310 310 310 312 313 314 314 314 314 314 314 314 314 314 314 314 314 314
320 319 320 322 321 321 319 314 312 314 315 315 316 316 316 316 315 314 314 314 314 314 314 313 313 313 312 311 311 311 312 313 313 313 312 312 311 310 310 310 310 311 311 311 311 311 311 312 312 312 312 312 314 314 314 314 314 314 314 314 314 314 314
321 321 322 322 322 322 321 319 318 318 318 318 318 317 318 318 316 315 314 314 314 314 314 314 314 314 314 313 313 312 312 312 312 312 312 312 312 311 311 311 310 311 311 311 311 312 313 315 315 314 314 313 314 315 315 315 314 314 314 314 314 315 314
322 322 322 323 322 322 321 321 321 321 321 321 320 319 320 319 317 316 315 315 315 314 314 314 314 314 314 314 314 313 313 313 313 313 313 312 312 312 311 311 310 310 310 311 311 312 314 315 316 316 316 316 316 316 316 316 315 315 315 315 314 315 314
322 322 322 322 322 321 321 321 321 321 322 322 321 320 320 319 318 316 316 316 316 315 315 315 315 316 316 316 316 315 314 314 314 314 314 314 314 313 313 313 312 311 311 311 312 313 314 315 316 316 317 317 317 317 317 317 317 316 316 315 315 315 315
320 319 319 320 321 321 321 321 321 321 321 322 321 321 321 320 319 318 317 317 318 317 318 317 318 318 318 318 319 318 317 316 315 314 314 314 314 315 315 315 315 314 314 314 314 315 315 316 316 317 317 317 318 318 318 318 317 317 317 316 316 316 315
316 316 315 315 317 319 320 320 321 321 321 322 321 321 321 321 320 320 319 319 319 319 319 319 319 319 319 319 319 319 319 319 318 317 316 315 315 315 315 315 315 316 316 316 316 316 316 316 317 318 318 318 317 317 317 317 317 317 317 316 316 316 315
312 313 313 312 314 316 318 318 319 320 320 320 320 320 320 320 320 320 320 320 320 320 320 320 320 319 319 319 320 320 320 320 320 319 319 318 317 315 315 315 315 316 316 317 317 317 317 318 318 318 317 317 317 316 316 316 315 314 314 315 315 315 314
310 311 312 312 311 312 314 315 317 318 318 319 319 319 319 318 318 318 318 318 318 318 318 319 319 319 319 319 319 319 319 319 320 320 320 319 319 318 317 316 315 316 316 317 318 318 318 318 318 317 317 317 317 317 316 316 315 314 313 313 313 313 311
307 309 310 310 308 307 309 310 312 314 315 316 316 316 317 317 316 316 316 316 316 316 316 316 317 318 318 318 318 318 318 318 319 319 319 319 319 319 318 318 317 317 317 318 318 318 318 318 318 317 317 317 317 316 316 315 314 313 312 312 311 310 310
302 303 304 304 303 304 304 304 305 307 309 310 311 312 313 313 313 313 313 313 313 314 314 314 315 315 315 316 316 316 317 317 317 317 318 318 318 318 318 317 317 317 318 318 319 318 318 318 317 317 317 317 316 316 315 314 313 313 312 312 311 310 311
302 302 301 301 300 301 301 301 302 302 303 304 304 305 305 306 306 306 306 306 306 307 308 309 311 312 313 313 314 315 315 316 316 316 317 316 316 316 316 315 316 316 316 316 316 317 317 317 317 317 317 317 316 316 314 313 312 312 312 312 311 310 310
301 301 301 300 300 300 300 300 300 299 300 300 300 301 301 301 301 301 301 301 301 301 302 302 303 305 306 308 309 310 312 313 313 314 314 314 314 314 313 313 313 313 313 312 313 314 315 316 316 317 317 316 316 315 314 313 313 312 312 311 310 309 309
299 299 299 299 299 299 299 299 298 298 298 298 299 299 299 299 299 299 299 299 299 299 299 299 299 300 301 302 303 304 306 307 308 309 310 311 311 311 311 310 310 310 310 311 311 313 314 315 316 316 316 316 316 315 314 313 313 312 312 311 309 308 308
298 298 298 298 298 298 298 298 298 298 298 298 298 298 298 298 298 298 298 298 299 299 298 298 298 298 298 299 299 300 301 302 304 306 307 308 309 309 309 309 309 309 310 311 312 313 314 316 316 316 316 316 316 315 314 313 312 312 311 310 308 307 306
Wind_Speed
14 14 15 13 12 11 11 11 10 10 10 9 9 9 8 8 8 8 8 9 9 9 9 9 9 9 11 12 11 11 11 10 9 8 9 10 12 14 13 11 8 5 7 11 11 13 15 16 14 10 7 6 7 9 9 10 11 11 10 9 8 8 8
13 14 14 13 11 10 10 10 9 9 9 9 9 9 8 8 8 8 9 9 10 9 9 10 10 10 10 11 11 12 10 9 9 9 9 10 12 13 12 12 9 7 10 14 13 11 12 15 16 14 11 9 9 9 8 8 9 10 11 10 8 7 7
14 14 13 12 11 10 9 9 9 9 8 9 8 8 8 8 8 8 8 9 9 9 9 10 10 10 11 11 11 11 10 9 10 10 10 10 11 12 12 11 11 10 13 16 15 12 12 12 14 16 14 11 9 9 8 7 7 9 11 12 9 6 5
13 13 13 12 10 9 8 8 8 8 7 7 7 7 8 8 8 8 8 7 8 8 8 8 8 9 10 10 11 10 9 10 10 11 11 11 12 12 12 11 11 11 12 14 14 14 13 11 12 16 16 11 8 8 8 7 6 7 10 11 9 7 5
12 11 11 10 9 8 7 6 6 6 5 5 5 5 6 6 7 8 9 8 8 7 6 6 6 7 8 9 9 9 8 9 9 10 11 12 11 11 12 12 11 11 11 12 11 12 12 10 11 15 16 12 9 9 8 6 5 6 7 9 9 8 7
10 9 8 8 8 7 6 5 4 3 2 3 4 4 4 4 4 7 9 9 8 7 6 5 4 5 7 8 8 8 8 7 8 8 9 10 10 9 11 13 13 12 13 13 11 10 11 10 11 14 15 12 10 11 10 7 5 5 5 7 8 8 7
10 8 8 8 7 6 5 4 2 1 1 1 3 4 4 3 4 5 7 8 8 7 7 5 2 3 6 9 8 8 8 8 8 8 9 10 9 8 10 14 14 13 14 15 13 11 12 12 12 14 15 14 11 10 10 9 5 4 4 5 6 7 6
9 9 9 8 6 5 4 4 3 2 1 1 2 4 6 5 5 5 5 6 8 8 7 5 3 3 6 8 8 8 8 8 9 9 10 10 9 9 11 13 14 14 15 16 15 14 13 12 12 13 14 15 13 11 9 9 7 3 2 4 5 6 6
11 12 11 9 7 6 5 4 3 2 2 1 1 1 5 6 5 5 5 5 7 8 8 6 5 5 6 7 7 8 7 8 9 10 10 10 10 11 13 14 15 15 16 16 16 15 12 11 11 12 10 8 10 13 12 10 9 6 3 3 5 6 6
13 13 11 9 8 7 6 4 3 1 0 0 1 1 3 5 5 4 4 5 5 6 7 7 6 6 7 7 7 8 8 7 8 10 10 10 11 12 13 13 14 15 16 16 16 16 13 11 12 12 7 1 2 9 12 11 10 8 6 5 5 5 5
13 12 8 7 6 6 5 3 2 1 1 1 2 1 2 4 5 4 5 6 6 6 7 7 7 7 7 8 9 8 8 8 10 11 10 10 11 13 13 12 11 11 13 14 16 16 14 13 13 13 8 2 1 3 5 6 9 9 7 6 6 5 4
12 10 7 6 5 4 4 2 2 3 3 3 3 3 3 4 4 4 6 7 7 7 7 7 7 7 8 8 9 9 10 10 10 11 10 9 10 11 11 10 8 8 11 13 15 16 16 15 14 14 11 7 5 4 2 2 6 8 8 7 5 4 4
12 10 8 7 5 4 4 2 2 3 4 4 4 4 3 4 3 4 8 9 7 7 8 7 6 6 7 8 9 10 11 11 10 10 9 9 10 9 8 7 6 7 10 11 14 15 16 16 16 14 12 10 9 8 7 5 3 4 7 8 6 3 4
12 10 9 8 6 5 4 2 2 3 4 5 4 3 3 3 4 6 9 8 7 7 6 6 5 5 6 9 10 12 12 12 11 11 10 10 11 10 9 8 7 8 9 11 13 15 15 17 17 14 13 13 13 12 11 10 7 5 7 9 8 5 6
12 11 10 8 6 6 5 3 2 3 4 4 2 3 4 3 5 8 10 8 8 7 5 5 4 4 6 9 11 12 13 13 13 12 12 12 12 11 10 9 9 9 11 11 13 15 15 16 16 14 14 14 15 15 15 14 11 8 8 8 8 7 8
13 11 10 8 7 6 5 4 3 3 3 3 4 4 4 4 6 9 10 9 8 8 7 7 6 5 7 8 10 12 13 13 13 13 13 13 13 13 12 12 11 11 13 13 13 15 15 14 13 12 12 12 13 16 17 17 14 10 9 9 9 8 10
14 11 9 8 6 6 6 4 3 3 4 4 5 5 5 5 6 9 10 9 8 8 8 8 7 7 8 8 9 11 13 13 12 12 12 12 13 14 15 15 14 13 14 13 13 13 12 12 11 11 11 11 12 13 16 18 16 11 10 10 10 9 10
14 11 9 7 6 7 7 5 4 4 6 6 7 7 7 7 6 6 8 8 8 7 7 8 9 9 10 10 11 12 13 12 11 10 10 10 10 12 15 17 16 16 15 15 14 14 13 13 14 13 12 13 12 12 15 18 16 12 11 11 10 10 11
14 12 10 8 7 8 7 5 4 5 7 7 7 8 8 7 7 5 4 6 7 7 7 8 10 10 11 11 12 13 13 12 12 11 10 10 9 10 12 14 16 17 17 17 16 16 15 15 15 14 13 12 12 13 15 16 15 13 12 11 10 10 11
16 14 12 10 9 9 7 5 5 7 9 8 8 7 7 5 5 4 3 3 5 7 8 9 11 11 12 12 13 13 13 13 12 11 11 11 10 10 9 11 13 14 15 15 15 15 14 14 15 15 14 13 13 14 15 15 14 15 14 12 12 12 11
17 15 13 11 11 9 7 6 7 8 10 9 8 6 6 5 4 4 3 2 3 4 6 9 11 12 13 13 13 13 13 12 12 12 12 12 12 11 10 10 11 12 13 13 13 14 15 15 16 15 15 15 16 16 16 16 15 17 17 15 15 14 13
14 14 14 13 12 10 8 8 9 11 11 11 8 7 6 6 5 5 4 4 3 3 3 5 8 11 13 14 13 13 13 13 13 13 13 14 14 13 12 12 12 13 14 14 15 15 16 17 17 17 17 17 18 19 19 19 18 18 18 18 18 17 16
14 16 16 15 13 12 10 9 10 12 12 12 10 9 8 7 6 6 6 6 6 5 3 2 4 7 10 12 13 14 14 14 14 14 14 14 15 15 15 15 15 15 16 17 17 17 18 19 20 20 19 19 19 21 21 22 22 21 20 20 20 20 19
16 16 16 15 14 14 13 12 11 11 12 12 11 11 10 8 8 8 7 7 7 6 5 3 3 4 6 8 11 13 14 15 16 16 17 17 17 17 17 17 17 17 18 18 18 18 19 19 20 21 22 21 20 20 21 22 22 23 22 22 21 21 22
17 16 16 16 16 15 15 15 14 12 12 12 13 12 10 11 11 11 10 9 9 8 7 6 7 7 7 8 9 10 12 14 16 18 19 20 20 20 20 20 20 20 19 19 18 19 19 19 19 20 21 22 21 21 21 22 22 23 23 24 24 23 23
18 17 18 18 18 17 17 16 16 16 14 13 14 13 10 11 13 15 14 13 13 13 12 12 12 12 12 12 13 13 13 14 14 15 17 18 20 21 22 23 23 22 21 21 20 20 20 21 21 21 21 22 23 23 23 23 23 24 24 25 26 26 26
15 16 16 16 16 17 16 16 16 16 15 14 14 14 12 13 15 17 17 17 16 16 16 16 15 15 15 15 16 17 18 18 19 18 17 18 18 20 21 22 23 23 22 22 22 22 23 24 24 24 24 25 25 25 25 25 25 26 26 26 27 27 27
15 15 14 13 14 15 15 15 14 14 14 15 15 16 15 16 17 18 19 19 19 18 17 17 17 16 17 16 17 18 19 21 22 23 23 23 22 22 22 22 23 23 24 24 24 24 25 27 28 28 29 29 29 28 28 27 28 28 28 28 28 27 27
17 17 16 15 15 14 13 13 13 14 15 15 16 16 17 17 18 18 20 21 21 21 20 20 19 19 19 18 19 19 20 21 22 24 25 26 27 27 27 27 27 27 26 26 26 27 28 29 31 32 33 33 33 33 32 31 32 31 29 28 29 28 26
13 12 12 11 11 12 12 11 12 13 14 15 15 15 16 17 17 18 19 21 23 24 24 24 25 25 24 23 23 22 22 23 24 25 26 27 28 30 31 31 31 32 31 31 30 31 31 32 33 34 36 36 35 34 34 34 36 35 32 30 29 26 25
5 4 5 5 5 7 9 10 11 13 13 14 14 15 15 15 16 17 17 18 20 21 22 23 24 26 27 28 27 26 25 24 25 27 28 29 29 30 31 32 34 35 36 36 34 34 35 35 36 37 38 37 35 33 34 35 35 34 33 31 28 25 24
3 4 5 6 6 5 5 6 9 11 13 14 14 15 16 16 16 17 17 18 19 20 21 21 22 24 25 27 28 29 28 27 26 27 29 30 31 30 30 31 32 34 37 37 36 35 36 37 37 37 37 36 35 34 35 34 32 30 28 27 25 25 25
4 5 6 8 9 9 10 11 11 12 14 15 16 17 18 19 19 20 21 21 22 23 24 24 24 25 25 25 26 28 28 28 28 27 27 29 30 30 29 29 30 31 34 35 35 35 36 37 38 38 37 36 35 34 34 32 29 26 24 24 25 26 26
10 9 10 10 11 11 13 14 15 16 17 18 19 20 21 22 23 24 24 25 25 25 26 26 27 27 27 27 27 27 28 28 28 28 28 28 28 29 28 28 28 28 29 31 33 34 35 35 36 38 37 35 33 31 29 28 27 25 25 25 25 24 25
13 13 14 15 15 15 16 16 17 18 18 19 20 21 22 23 24 25 25 26 26 26 27 27 27 27 28 28 28 28 29 29 28 29 30 31 31 30 29 28 28 28 28 29 31 32 33 33 33 35 35 33 31 30 29 29 28 27 25 24 23 23 24
14 14 15 16 17 17 18 18 18 19 19 20 21 21 22 23 24 25 26 26 26 27 27 28 28 28 29 29 29 29 30 31 30 30 32 34 34 34 32 31 30 29 28 28 30 31 32 32 31 32 32 31 30 31 31 30 29 28 25 24 25 26 24
15 16 16 17 17 18 18 19 19 20 20 21 22 23 24 24 26 27 28 28 28 28 28 27 28 28 28 29 30 30 31 32 32 32 34 36 36 36 35 35 33 30 28 27 28 30 30 30 30 30 30 31 32 34 34 31 28 27 27 28 28 27 24
Wind_Direction
152 148 150 153 155 158 159 158 157 155 152 155 161 166 169 172 177 180 179 177 179 184 189 188 185 186 189 195 197 195 195 198 202 209 213 214 208 199 196 201 205 195 197 203 196 182 170 162 156 152 153 142 110 96 86 75 66 59 54 54 58 63 61
154 151 150 151 153 156 158 158 158 158 157 160 166 168 170 173 175 179 183 183 184 185 182 178 180 182 185 193 195 193 195 201 207 208 207 214 214 209 204 203 204 189 185 192 194 195 184 167 162 164 165 159 136 113 94 76 65 54 46 46 51 56 54
162 157 152 151 151 150 150 147 145 152 159 163 171 174 176 179 179 178 180 185 186 182 179 177 179 180 183 190 192 195 204 210 214 211 207 210 212 214 216 211 204 189 182 187 191 196 194 179 169 169 173 170 153 128 108 88 71 58 48 45 47 52 46
169 163 156 152 149 147 149 142 136 142 153 162 172 173 176 184 190 191 187 188 190 184 176 174 175 178 183 189 192 198 206 208 209 211 209 208 208 211 214 214 211 203 196 195 195 195 195 191 176 169 170 174 161 132 118 109 82 60 49 43 43 53 52
177 167 156 149 148 152 158 151 139 140 153 170 178 176 171 171 183 195 197 197 196 189 180 171 167 175 182 184 188 192 195 195 200 208 211 211 210 209 207 206 202 206 214 210 203 200 199 203 190 172 167 169 160 138 131 130 105 72 52 43 44 57 63
181 169 159 154 154 167 172 161 147 139 164 181 185 194 186 168 174 185 191 197 199 196 192 180 163 174 187 188 191 194 193 194 200 205 209 212 211 208 204 200 193 196 208 211 210 204 197 200 196 178 168 167 159 147 148 152 133 102 71 48 48 65 71
177 171 168 163 164 177 182 174 162 124 135 208 218 226 222 211 206 194 188 191 192 195 197 194 180 175 186 192 198 198 193 193 197 196 197 199 201 199 197 196 193 194 202 208 208 200 195 197 198 189 174 162 158 156 160 168 162 123 96 69 64 80 81
177 174 169 169 174 184 192 200 194 145 114 175 249 240 223 212 208 199 190 192 197 204 208 212 226 203 183 189 197 195 191 193 194 191 188 189 192 189 181 183 188 191 197 204 202 197 203 209 205 202 188 166 162 169 174 180 178 159 121 96 89 98 99
178 173 167 168 174 181 198 207 193 156 122 118 13 245 210 207 208 196 191 203 209 210 216 225 229 210 188 190 197 196 198 200 191 184 185 186 186 180 174 176 183 188 191 197 200 199 204 212 206 199 193 178 172 176 182 194 195 189 176 131 110 115 117
176 171 165 162 165 172 188 197 186 175 157 336 5 23 199 207 214 218 217 212 200 195 204 206 200 195 191 197 202 201 205 200 180 174 178 180 178 174 172 173 178 185 187 190 197 196 191 199 199 186 175 189 195 173 174 191 203 201 191 160 132 125 129
174 170 164 157 161 171 184 191 198 237 279 297 321 340 232 217 212 216 216 203 185 173 175 172 172 179 186 194 197 195 194 185 171 169 170 168 167 165 164 164 166 178 186 189 195 193 189 194 198 192 185 190 226 175 153 166 188 197 200 186 156 133 139
171 170 166 162 166 180 196 201 224 260 284 296 304 306 271 247 237 203 192 192 181 165 158 151 153 165 175 182 184 181 178 171 169 169 164 162 164 164 165 163 161 170 183 192 198 196 194 196 200 203 204 205 213 236 254 156 177 194 201 196 177 148 156
168 167 167 170 178 191 203 221 246 263 281 291 290 281 252 243 237 189 182 185 178 163 155 145 139 151 168 172 172 174 173 170 173 171 163 162 165 171 180 177 168 171 180 188 192 195 198 198 202 207 212 216 220 232 246 244 228 212 198 192 189 179 177
169 168 168 174 186 194 199 214 242 261 279 284 270 221 198 200 192 182 181 180 176 170 163 151 140 150 172 176 174 177 178 178 182 180 174 172 171 178 192 193 180 173 177 180 183 190 197 197 201 211 220 225 225 228 236 240 243 235 211 197 192 196 197
173 172 173 180 188 193 200 212 236 268 270 257 210 165 171 179 180 184 186 186 185 188 192 190 181 173 181 186 184 185 187 187 190 192 189 188 185 185 192 197 191 174 171 179 183 186 191 195 201 212 220 224 227 229 234 236 239 244 238 219 206 205 203
178 179 180 187 191 190 199 209 222 251 239 200 157 146 164 184 185 183 186 195 200 204 213 218 217 205 191 192 193 193 195 196 199 203 204 204 202 199 197 199 198 184 174 177 180 180 183 191 199 208 213 218 224 230 234 236 237 246 248 234 223 217 207
183 189 191 195 196 189 192 203 209 202 184 168 150 145 151 166 179 181 183 193 200 204 214 217 217 212 199 197 199 196 196 198 202 208 214 214 211 207 202 200 199 195 188 187 189 191 198 209 218 224 225 226 228 230 234 234 233 239 244 238 234 225 209
186 196 207 210 204 189 183 193 202 183 171 162 150 143 137 131 140 166 186 197 202 204 209 209 206 204 200 198 198 193 191 191 194 201 209 211 208 203 200 201 203 202 202 206 212 219 228 237 241 240 237 236 232 224 224 227 230 233 236 237 238 225 208
193 199 215 217 200 187 181 186 197 181 172 164 151 144 137 125 115 119 165 198 205 202 199 197 197 197 195 193 190 188 184 183 186 191 195 197 196 194 195 202 209 212 216 222 228 235 241 244 245 244 241 234 224 213 214 223 231 233 232 232 232 228 220
201 201 213 210 188 179 177 184 193 185 176 167 157 154 153 143 129 119 123 161 185 190 190 191 191 189 188 187 186 186 184 183 187 188 187 188 189 188 189 198 209 218 224 230 235 240 243 246 247 247 244 237 226 218 218 224 230 233 235 231 223 227 232
202 200 204 191 173 171 178 186 188 186 181 172 165 171 178 176 173 169 162 151 157 172 185 194 195 191 187 187 190 193 192 190 190 190 190 192 195 197 197 200 207 215 223 230 236 241 246 251 252 249 246 243 240 236 234 233 231 232 237 237 231 229 229
200 193 183 165 157 165 177 184 185 183 183 179 180 196 203 201 200 201 205 207 206 199 190 200 208 207 201 198 199 202 204 204 203 202 201 202 205 209 212 215 218 223 230 235 240 245 250 254 256 252 248 246 245 244 242 242 239 235 234 235 235 233 229
187 178 167 158 163 170 169 173 180 181 183 188 198 210 212 208 209 215 221 224 229 237 240 227 225 225 221 217 217 217 218 220 220 221 222 221 220 221 224 228 231 234 240 244 247 251 253 255 256 255 253 251 250 249 246 244 244 242 239 238 239 238 236
180 173 167 169 175 174 168 168 177 186 195 204 211 217 221 222 220 221 226 230 235 243 246 241 236 239 237 233 234 234 234 235 236 238 239 239 238 238 239 242 245 246 248 251 254 255 257 258 258 257 256 256 255 253 250 247 246 246 246 246 244 241 242
185 181 180 182 180 178 175 174 182 197 209 217 222 223 227 229 226 225 227 232 238 244 248 251 250 252 253 250 248 246 245 245 245 247 249 250 249 249 250 252 254 255 257 259 260 260 260 261 260 259 259 258 256 252 249 249 248 248 249 250 250 249 250
186 184 186 186 185 186 185 184 192 202 208 216 223 225 228 226 224 226 229 231 236 241 246 251 254 256 258 259 259 259 256 254 253 254 257 258 258 257 257 257 258 259 261 263 264 264 264 264 263 262 260 260 258 256 253 251 251 250 250 250 251 253 255
180 180 185 190 193 194 193 195 201 204 203 206 213 219 222 221 221 225 228 229 232 235 238 243 246 251 254 257 259 261 261 260 259 259 259 260 262 263 263 264 264 264 264 265 266 266 265 265 264 263 263 262 260 259 257 257 257 256 255 254 253 253 254
152 153 158 173 186 190 192 196 202 205 204 205 211 216 220 222 223 225 227 228 229 230 232 236 240 245 250 253 256 257 258 259 258 258 258 259 259 260 261 263 264 265 265 265 266 266 266 267 266 265 264 263 262 261 261 260 262 262 263 263 262 261 260
145 146 147 152 160 168 177 183 190 198 205 210 214 218 222 226 229 231 233 234 234 234 237 241 244 247 250 254 257 258 258 257 256 255 255 256 257 258 259 259 260 262 264 264 265 266 267 267 265 263 262 261 263 264 263 262 262 262 263 267 268 268 266
142 149 154 147 142 153 168 180 187 193 202 208 213 219 225 230 235 238 241 243 244 245 246 248 249 250 252 254 256 259 260 260 258 257 255 255 256 257 258 258 259 260 261 262 264 265 265 265 265 266 266 263 262 264 263 262 262 261 261 265 268 267 265
145 154 170 164 152 161 174 186 195 200 207 212 217 223 228 234 239 242 244 246 248 249 249 248 249 249 249 251 252 254 257 260 261 261 261 260 260 260 260 260 260 261 261 260 259 261 263 265 266 269 269 264 262 264 266 264 262 261 259 259 261 262 262
231 237 221 230 252 246 225 220 218 217 219 223 226 230 232 235 239 242 245 246 248 249 248 247 247 247 247 249 250 251 252 254 257 259 262 264 266 266 265 264 263 263 263 263 262 262 265 267 267 266 264 262 261 265 267 263 260 259 257 255 257 260 261
285 271 260 262 271 269 263 262 255 246 242 240 241 241 241 241 242 244 246 248 248 249 249 246 245 246 247 247 249 250 250 250 251 253 256 260 264 266 267 266 265 264 264 266 268 268 268 269 269 267 264 262 263 265 265 261 257 256 256 259 263 262 256
305 300 293 288 286 282 278 276 272 267 262 258 256 255 254 253 253 253 253 254 254 254 252 250 248 247 247 247 248 250 250 250 251 251 251 252 255 258 262 263 264 265 266 268 270 270 269 269 270 270 268 266 265 266 262 256 253 256 262 265 260 250 239
308 306 302 298 295 292 290 288 285 282 279 274 271 269 267 267 266 264 264 264 263 262 262 261 258 255 254 253 252 253 254 255 255 255 255 254 253 253 256 258 261 264 267 269 270 271 270 268 266 267 269 269 266 262 256 251 252 260 265 258 243 229 224
310 307 306 304 300 298 296 294 292 291 290 288 285 283 281 279 278 276 275 273 272 271 269 268 267 266 264 262 261 259 259 259 259 260 260 261 260 259 258 258 258 260 264 270 271 270 267 266 264 265 268 269 265 257 253 251 254 258 255 240 227 222 220
315 311 308 306 303 301 299 298 297 295 294 293 291 290 289 287 286 284 283 281 279 278 276 275 274 272 270 268 267 265 263 263 262 262 262 262 264 264 263 261 259 257 258 265 271 271 267 264 263 263 264 266 263 257 255 255 252 245 235 225 220 219 217